Regional Weather Roundup
Issued by NWS

Home | Current Version | Previous Version | Text Only | Print | Product List | Glossary On
Versions: 1 2 3 4 5 6 7 8 9 10 11 12 13 14 15 16 17 18 19 20 21 22 23 24 25 26 27 28 29 30 31 32 33 34 35 36 37 38 39 40 41 42 43 44 45 46 47 48 49 50
000
ASUS45 KABQ 251501
RWRNM
WEATHER ROUNDUP FOR NEW MEXICO
NATIONAL WEATHER SERVICE ALBUQUERQUE NM
800 AM MST THU DEC 25 2014

NOTE: "FAIR" MEANS FEW OR NO CLOUDS BELOW 12,000 FEET AGL WITH NO
       SIGNIFICANT WEATHER OR OBSTRUCTIONS TO VISION.

      THIS PRODUCT IS RELEASED AS TWO VERSIONS.  ONE VERSION NEAR
      THE TOP OF THE HOUR CONTAINING PRELIMINARY DATA FROM ALBUQUERQUE
      AND OTHER STATIONS.  A FINAL VERSION WITH ADDITIONAL DATA IS
      ISSUED ABOUT 10 MINUTES AFTER THE HOUR.

NMZ501-503-504-510>518-251600-
NORTHWEST PLATEAU/NORTHCENTRAL MOUNTAINS

CITY           SKY/WX    TMP DP  RH WIND       PRES   REMARKS
FARMINGTON     MOCLDY    32  15  49 E9        29.61F WCI  24
LOS ALAMOS     MOCLDY    33   7  34 SW18      29.68F WCI  21
SANTA FE       PTCLDY    25  10  53 N6        29.71S WCI  18
TAOS           CLOUDY    23  12  63 CALM      29.70F
ANGEL FIRE     PTSUNNY   26  12  55 NE7       29.65S WCI  18

$$
NMZ402-403-502-505>509-251600-
WESTCENTRAL MOUNTAINS/SOUTHWEST MOUNTAINS

CITY           SKY/WX    TMP DP  RH WIND       PRES   REMARKS
GALLUP         CLOUDY    37  12  35 SW20G32   29.67F WCI  27
GRANTS         MOCLDY    36   9  33 CALM      29.71R
SILVER CITY    CLEAR     30  14  51 NE5       29.83S WCI  25

$$
NMZ407-409-411-412-251600-
SOUTHERN DESERTS

CITY           SKY/WX    TMP DP  RH WIND       PRES   REMARKS
LORDSBURG      FAIR      30  21  69 S5        29.82S WCI  25
DEMING         MOCLDY    29  19  66 CALM      29.83R
HOLLOMAN AFB   CLOUDY    40  11  30 S12       29.82R WCI  33
ALAMOGORDO     CLOUDY    39  10  30 S14       29.82R WCI  31
T OR C         CLEAR     31   9  39 CALM      29.78F

$$
NMZ519>523-251600-
CENTRAL VALLEYS/CENTRAL HIGHLANDS

CITY           SKY/WX    TMP DP  RH WIND       PRES   REMARKS
ALBUQUERQUE    PTCLDY    34  11  38 S9        29.72S WCI  27
DOUBLE EAGLE   PTCLDY    28   9  43 S9        29.71S WCI  20
MORIARTY ARPT  FAIR      24  15  68 S7        29.72S WCI  16
CLINES CORNERS PTCLDY    29   6  38 SW29G35   29.66S WCI  14
BELEN          FAIR      35   8  32 S21       29.72S WCI  24
SOCORRO        FAIR      34   8  34 S13       29.75S WCI  25

$$
NMZ524>526-539-540-251600-
SOUTHCENTRAL MOUNTAINS

CITY           SKY/WX    TMP DP  RH WIND       PRES   REMARKS
RUIDOSO        CLOUDY    45   3  18 SW26G36   29.74S

$$
NMZ527>531-251600-
NORTHEAST HIGHLANDS/NORTHEAST PLAINS

CITY           SKY/WX    TMP DP  RH WIND       PRES   REMARKS
LAS VEGAS      PTCLDY    36  10  34 SW14      29.63S WCI  27
RATON          PTCLDY    29  13  51 SW6       29.59R WCI  23
CLAYTON        PTCLDY    37  19  48 W13       29.57R WCI  29

$$
NMZ532>537-251600-
EASTCENTRAL PLAINS

CITY           SKY/WX    TMP DP  RH WIND       PRES   REMARKS
TUCUMCARI      MOCLDY    40  13  33 SW9       29.64S WCI  34
CANNON AFB     CLOUDY    37  14  38 W13       29.71R WCI  29
CLOVIS AIRPORT CLOUDY    39  16  38 SW15      29.69F WCI  31

$$
NMZ028-029-538-251600-
SOUTHEAST PLAINS

CITY           SKY/WX    TMP DP  RH WIND       PRES   REMARKS
ROSWELL        CLOUDY    31  19  61 NW3       29.71S
ARTESIA        CLOUDY    43  14  31 S17       29.74R
CARLSBAD       CLOUDY    33  27  78 N7        29.76R WCI  27
HOBBS          SUNNY     39  18  41 S16       29.78R WCI  30


$$



USA.gov is the U.S. government's official web portal to all federal, state and local government web resources and services.